Notices

What's New in latest Release from April 7th, 2021:

- Updated Glossary, including Speed of Maximum Gust, and Total Hourly Precipitation

- Updated national and regional climate services offices contacts and prices information

- Addition of station inventory lists for 1981-2010, 1971-2000, and 1961-1990 Normals.

If you haven't already, please take our survey and provide feedback about our website: https://eccc.sondage-survey.ca/f/LanguageSelection.aspx?s=442ca660-fcf1-47c0-95a9-59707d6fd709

Hourly Data Report for November 14, 2016

VICTORIA UNIVERSITY CS
BRITISH COLUMBIA

48°27'25.200" N
123°18'16.600" W
60.10 m
1018598
71783
WYJ

Download Data

Hourly Data (November 2016)
Hourly Data Report for November 14, 2016
TIME
LST
Temp Definition
°C
Dew Point Definition
°C
Rel Hum Definition
%
Precip. Amount Definition
mm

Wind Dir Definition
10's deg

Wind Spd Definition
km/h
Visibility Definition
km
Stn Press Definition
kPa
Hmdx Definition


Wind Chill Definition


Weather Definition


00:00 9.6 9.3 99 0.0 19 2   100.60     LegendNANA
01:00 9.1 8.8 99 0.0 22 2   100.59     LegendNANA
02:00 8.8 8.6 99 0.0 27 4   100.64     LegendNANA
03:00 7.6 7.3 98 0.0 22 2   100.64     LegendNANA
04:00 6.9 6.7 99 0.0 20 3   100.63     LegendNANA
05:00 6.0 5.9 99 0.0 31 3   100.65     LegendNANA
06:00 7.1 7.0 99 0.0 28 6   100.73     LegendNANA
07:00 7.6 7.4 99 0.0 28 6   100.79     LegendNANA
08:00 6.8 6.4 98 0.2 31 2   100.87     LegendNANA
09:00 9.0 8.8 99 0.0 0 1   100.95     LegendNANA
10:00 12.2 8.1 76 0.0 1 2   101.02     LegendNANA
11:00 12.0 7.3 73 0.0 25 9   101.05     LegendNANA
12:00 12.4 8.9 79 0.0 16 6   101.05     LegendNANA
13:00 11.8 8.0 78 0.0 17 8   101.07     LegendNANA
14:00 11.3 8.4 82 0.0 15 5   101.06     LegendNANA
15:00 10.8 8.9 88 0.0 16 5   101.05     LegendNANA
16:00 10.3 8.7 90 0.0 0 1   100.98     LegendNANA
17:00 9.6 8.4 92 0.0 12 1   100.94     LegendNANA
18:00 9.1 7.9 92 0.0 4 2   100.83     LegendNANA
19:00 9.3 7.4 88 0.0 36 7   100.81     LegendNANA
20:00 9.6 7.3 86 0.0 36 8   100.68     LegendNANA
21:00 9.3 8.3 94 0.0 35 9   100.59     LegendNANA
22:00 9.1 8.1 93 0.0 34 9   100.47     LegendNANA
23:00 8.9 7.6 91 0.0 1 8   100.31     LegendNANA

Notes on Data Quality.

Legend

  • E = Estimated
  • M = Missing
  • NA = Not Available*
  • [empty] = Indicates an unobserved value
Date modified: